This is the latest recevied weather packets stored in our database for station/object KC1HBM. If no packets are shown the sender has not sent any weather packets the latest 1 day(s).
| Time | Temp. | Humidity | Pressure | Rain* | Wind** | Luminosity | Snow |
|---|---|---|---|---|---|---|---|
| 1778060781 | 10.56° C | 94% | 1007.1 hPa | 0 mm | - | 5 W/m² | - |
| 1778060177 | 10.56° C | 94% | 1006.8 hPa | 0 mm | - | 2 W/m² | - |
| 1778059874 | 10.56° C | 94% | 1006.6 hPa | 0 mm | - | 0 W/m² | - |
| 1778059572 | 10.56° C | 93% | 1006.9 hPa | 0 mm | - | 0 W/m² | - |
| 1778056844 | 11.67° C | 92% | 1006.6 hPa | 0 mm | - | 0 W/m² | - |
| 1778055935 | 11.67° C | 90% | 1006.8 hPa | 0 mm | - | 0 W/m² | - |
| 1778054724 | 12.22° C | 89% | 1006.7 hPa | 0 mm | - | 0 W/m² | - |
| 1778054421 | 12.22° C | 89% | 1006.6 hPa | 0 mm | - | 0 W/m² | - |
| 1778053815 | 12.22° C | 88% | 1006.9 hPa | 0 mm | - | 0 W/m² | - |
| 1778051999 | 11.67° C | 89% | 1006.5 hPa | 0 mm | - | 0 W/m² | - |
| 1778051697 | 11.67° C | 89% | 1006.2 hPa | 0 mm | - | 0 W/m² | - |
| 1778051394 | 11.67° C | 89% | 1006.5 hPa | 0 mm | - | 0 W/m² | - |
| 1778051091 | 11.67° C | 89% | 1006.4 hPa | 0 mm | - | 0 W/m² | - |
| 1778050182 | 11.67° C | 89% | 1006.3 hPa | 0 mm | - | 0 W/m² | - |
| 1778049575 | 11.67° C | 89% | 1006.4 hPa | 0 mm | - | 0 W/m² | - |
| 1778048970 | 11.11° C | 89% | 1006 hPa | 0 mm | - | 0 W/m² | - |
| 1778048364 | 11.67° C | 88% | 1006.3 hPa | 0 mm | - | 0 W/m² | - |
| 1778048061 | 11.67° C | 88% | 1006.2 hPa | 0 mm | - | 0 W/m² | - |
| 1778047759 | 11.67° C | 88% | 1006.2 hPa | 0 mm | - | 0 W/m² | - |
| 1778047457 | 11.67° C | 87% | 1006.1 hPa | 0 mm | - | 0 W/m² | - |
| 1778046850 | 12.22° C | 86% | 1006.3 hPa | 0 mm | - | 0 W/m² | - |
| 1778046547 | 12.22° C | 86% | 1006.2 hPa | 0 mm | - | 0 W/m² | - |
| 1778046244 | 12.78° C | 85% | 1006.2 hPa | 0 mm | - | 0 W/m² | - |
| 1778045940 | 12.78° C | 84% | 1006.1 hPa | 0 mm | - | 0 W/m² | - |
| 1778045337 | 12.78° C | 83% | 1006.2 hPa | 0 mm | - | 0 W/m² | - |
* Rain latest hour (hover to see other rain measurements)
** Current wind speed in m/s (hover to see current wind gust speed)